Location: Starhoo Observatory
(41.8578°N, 70.9669°W)
Time: 16:36:18
(UTC-04:00)

ISS - Visible Passes

Search period start: 23 May 2018 00:00
Search period end: 02 June 2018 00:00
Orbit: 402 x 407 km, 51.6° (Epoch: 24 May)

Date Brightness Start Highest point End Pass type
(mag) Time Alt. Az. Time Alt. Az. Time Alt. Az.
23 May -0.7 00:51:33 10° NNW 00:53:40 16° N 00:55:48 10° NE visible
23 May -2.5 02:27:41 10° NW 02:30:49 40° NNE 02:33:55 10° E visible
23 May -2.8 04:04:25 10° WNW 04:07:11 25° SW 04:09:56 10° SSE visible
23 May -3.9 20:43:47 10° SW 20:47:03 79° SE 20:50:19 10° ENE visible
23 May -1.2 22:21:13 10° WNW 22:23:51 22° NNW 22:26:28 10° NE visible
23 May -0.6 23:59:14 10° NW 00:01:12 15° N 00:03:10 10° NE visible
24 May -1.5 01:35:39 10° NW 01:37:42 24° N 01:37:42 24° N visible
24 May-0.203:20:19SE03:20:19SE03:10:12WNWvisible
24 May -1.7 21:28:31 10° W 21:31:28 30° NNW 21:34:25 10° NE visible
24 May -0.6 23:06:43 10° NW 23:08:43 15° N 23:10:43 10° NNE visible
25 May -1.2 00:43:34 10° NW 00:46:03 20° NNE 00:46:03 20° NNE visible
25 May -2.6 20:35:59 10° WSW 20:39:09 46° NNW 20:42:19 10° NE visible
25 May -0.7 22:14:01 10° NW 22:16:14 17° N 22:18:27 10° NNE visible
25 May -0.9 23:51:25 10° NNW 23:53:39 17° N 23:55:04 13° NE visible
26 May -0.7 01:27:33 10° NW 01:27:40 11° NW 01:27:40 11° NW visible
26 May -1.0 21:21:14 10° WNW 21:23:45 20° NNW 21:26:17 10° NE visible
26 May -0.8 22:59:09 10° NNW 23:01:09 15° N 23:03:10 10° NE visible
27 May -1.2 00:35:26 10° NW 00:36:52 20° NNW 00:36:52 20° NNW visible
27 May -0.8 22:06:40 10° NW 22:08:38 15° N 22:10:36 10° NE visible
27 May -1.5 23:43:20 10° NW 23:46:00 22° NNE 23:46:09 22° NNE visible
28 May -0.9 21:13:59 10° NW 21:16:06 16° N 21:18:13 10° NNE visible
28 May -1.1 22:51:12 10° NNW 22:53:31 18° NNE 22:55:29 12° NE visible
29 May -1.1 00:27:16 10° NW 00:28:06 16° NW 00:28:06 16° NW visible
29 May -0.9 21:58:55 10° NNW 22:00:59 15° N 22:03:04 10° NE visible
29 May -2.0 23:35:07 10° NW 23:37:28 31° N 23:37:28 31° N visible
30 May -0.9 21:06:28 10° NW 21:08:26 15° N 21:10:23 10° NE visible
30 May -1.8 22:42:59 10° NW 22:45:45 25° NNE 22:46:52 20° NE visible
31 May -0.8 00:19:12 10° WNW 00:19:30 12° WNW 00:19:30 12° WNW visible
31 May -1.4 21:50:48 10° NNW 21:53:15 19° NNE 21:55:42 10° ENE visible
31 May -2.2 23:26:54 10° NW 23:28:55 34° NW 23:28:55 34° NW visible
01 Jun -1.1 20:58:33 10° NNW 21:00:42 16° N 21:02:51 10° NE visible
01 Jun -2.9 22:34:41 10° NW 22:37:49 41° NNE 22:38:21 38° NE visible
